Location: Ellingshausen
(50.5460°N, 10.4723°E)
Time: 22:22:20
(UTC+00:00)

Cosmos 2297 Rocket - Pass Details

Date: 18 January 2026
Orbit: 837 x 844 km, 71.0° (Epoch: 7 February)

Event Time Altitude Azimuth Distance (km) Brightness Sun altitude
Exits shadow 06:13:32 - 334° (NNW) 3,248 4.8 -8.9°
Reaches altitude 10° 06:16:11 10° 349° (N) 2,476 4.3 -8.5°
Maximum altitude 06:20:16 20° 35° (NE) 1,877 4.2 -7.9°
Drops below altitude 10° 06:24:19 10° 81° (E) 2,467 5.6 -7.3°
Sets 06:27:28 0° 99° (E) 3,398 7.2 -6.8°
